Regional Weather Roundup
Issued by NWS

Home | Current Version | Previous Version | Graphics & Text | Print | Product List | Glossary Off
Versions: 1 2 3 4 5 6 7 8 9 10 11 12 13 14 15 16 17 18 19 20 21 22 23 24 25 26 27 28 29 30 31 32 33 34 35 36 37 38 39 40 41 42 43 44 45 46 47 48 49 50

336
ASUS43 KMKX 231159
RWRWI

WISCONSIN REGIONAL WEATHER ROUNDUP
NATIONAL WEATHER SERVICE MILWAUKEE/SULLIVAN WI
600 AM CST MON JAN 23 2017

NOTE: "FAIR" INDICATES FEW OR NO CLOUDS BELOW 12,000 FEET WITH NO
SIGNIFICANT WEATHER AND/OR OBSTRUCTIONS TO VISIBILITY.

WIZ001-002-006>008-014>016-023>028-231300-
NORTHWEST WISCONSIN

CITY           SKY/WX    TMP DP  RH WIND       PRES   REMARKS
SUPERIOR ARPT  CLOUDY    35  35 100 SW3       29.77S
ASHLAND        CLOUDY    34  34 100 SW3       29.76S FOG
6HR MIN TEMP:  34; 6HR MAX TEMP:  35;

HAYWARD        FOG       35  34  96 CALM      29.75S VSB 3/4
6HR MIN TEMP:  34; 6HR MAX TEMP:  35;

SIREN          CLOUDY    34  34 100 CALM      29.78S FOG
CUMBERLAND     FOG       32  32 100 W6        29.77R VSB 3/4 WCI  26
RICE LAKE      FOG       34  34 100 W5        29.78S VSB 1   WCI  30
CHETEK         CLOUDY    34  34 100 CALM      29.77S FOG
LADYSMITH      FOG       34  34  99 W3        29.76F VSB 1/2
EAU CLAIRE     NOT AVBL
MENOMONIE        N/A    N/A N/A N/A MISG        N/A
NEW RICHMOND   FOG       33  33 100 W5        29.79S VSB 1   WCI  28
OSCEOLA        CLOUDY    33  33 100 CALM      29.81F FOG
$$

WIZ003>005-009-010-017-018-231300-
NORTH CENTRAL WISCONSIN

CITY           SKY/WX    TMP DP  RH WIND       PRES   REMARKS
MANITOWISH WTR   N/A     32  32 100 CALM      29.72S FOG
ARBOR VITAE    FOG       34  33  97 CALM      29.72S VSB 1
WOODRUFF       FOG       34  33  97 CALM      29.72S VSB 1
RHINELANDER    CLOUDY    33  32  96 CALM      29.72S
6HR MIN TEMP:  33; 6HR MAX TEMP:  35;

EAGLE RIVER    CLOUDY    32  32 100 CALM      29.72S
LAND O LAKES   CLOUDY    33  33 100 CALM      29.73F
PHILLIPS       FOG       32  32 100 CALM      29.72F VSB 3/4
6HR MIN TEMP:  32; 6HR MAX TEMP:  32;

TOMAHAWK       CLOUDY    32  32  99 CALM      29.73S
MEDFORD        FOG       32  32 100 CALM      29.73S VSB 3/4
MERRILL        CLOUDY    33  33 100 CALM        N/A
6HR MIN TEMP:  33; 6HR MAX TEMP:  34;

$$

WIZ029-030-035-036-043>047-231300-
CENTRAL WISCONSIN

CITY           SKY/WX    TMP DP  RH WIND       PRES   REMARKS
WAUSAU         CLOUDY    34  33  96 NW5       29.72F WCI  30
6HR MIN TEMP:  33; 6HR MAX TEMP:  35;

MOSINEE        CLOUDY    34  34 100 NW8       29.74S WCI  27
MARSHFIELD     CLOUDY    33  32  96 NW6       29.73S FOG     WCI  28
6HR MIN TEMP:  33; 6HR MAX TEMP:  34;

STEVENS POINT  CLOUDY    32  32 100 CALM      29.74S
WAUPACA        CLOUDY    37  36  96 CALM      29.75R FOG
WAUTOMA        CLOUDY    34  34 100 MISG        N/A
6HR MIN TEMP:  34; 6HR MAX TEMP:  35;

WISC RAPIDS    CLOUDY    34  34 100 CALM      29.76S
6HR MIN TEMP:  34; 6HR MAX TEMP:  35;

CAMP DOUGLAS   FOG       36  34  93 W6        29.75S VSB 3/4 WCI  31
$$

WIZ011>013-019>022-031-037>040-048>050-231300-
NORTHEAST WISCONSIN

CITY           SKY/WX    TMP DP  RH WIND       PRES   REMARKS
ANTIGO         CLOUDY    32  32 100 N5        29.72S WCI  28
SHAWANO        CLOUDY    37  35  92 CALM      29.74R
OCONTO         CLOUDY    35  34  96 CALM      29.73S
STURGEON BAY   FOG       35  35 100 N7        29.74R VSB 1/2 WCI  29
6HR MIN TEMP:  34; 6HR MAX TEMP:  35; 6HR PCP: TRACE;

GREEN BAY      CLOUDY    37  37 100 NW5       29.75R WCI  33
6HR MIN TEMP:  36; 6HR MAX TEMP:  38;

MANITOWOC      NOT AVBL
APPLETON       FOG       36  36 100 NW7       29.73R VSB 3/4 WCI  30
CLINTONVILLE   CLOUDY    34  34 100 CALM      29.74R
OSHKOSH        CLOUDY    35  34  96 NW6       29.74R FOG     WCI  30
6HR MIN TEMP:  35; 6HR MAX TEMP:  36;

$$

WIZ032>034-041-042-053>061-231300-
SOUTHWEST WISCONSIN

CITY           SKY/WX    TMP DP  RH WIND       PRES   REMARKS
LA CROSSE      CLOUDY    38  34  85 NW6       29.78F WCI  33
6HR MIN TEMP:  37; 6HR MAX TEMP:  39;

SPARTA         CLOUDY    34  34 100 W5        29.78S FOG     WCI  30
VIROQUA        CLOUDY    33  33 100 NW7       29.76S VSB 1/4 WCI  27
6HR MIN TEMP:  33; 6HR MAX TEMP:  34;

BOSCOBEL       CLOUDY    38  35  89 CALM      29.78S
6HR MIN TEMP:  37; 6HR MAX TEMP:  38;

PRAIRIE DU CHI CLOUDY    35  33  92 NW6       29.79S WCI  30
PLATTEVILLE    CLOUDY    35  35 100 NW7       29.77R WCI  29
$$

WIZ056-057-062-063-064-067-068-231300-
SOUTH CENTRAL WISCONSIN

CITY           SKY/WX    TMP DP  RH WIND       PRES   REMARKS
REEDSBURG      CLOUDY    35  35 100 W3        29.76R
BARABOO/DELLS  CLOUDY    35  34  99 NW5       29.75S FOG     WCI  30
LONE ROCK      CLOUDY    36  34  92 W6        29.77S WCI  31
MINERAL POINT  CLOUDY    36  36 100 NW6       29.75S FOG     WCI  31
MADISON        CLOUDY    35  34  96 NW5       29.77R WCI  31
6HR MIN TEMP:  35; 6HR MAX TEMP:  36;

MIDDLETON      CLOUDY    37  37 100 NW6       29.76R WCI  32
WATERTOWN      CLOUDY    35  35 100 NW7       29.74R FOG     WCI  29
MONROE         CLOUDY    34  34 100 N5        29.74S FOG     WCI  30
JANESVILLE     CLOUDY    36  36 100 CALM      29.75R
$$

WIZ051-052-058>065-066-070>072-231300-
SOUTHEAST WISCONSIN

CITY           SKY/WX    TMP DP  RH WIND       PRES   REMARKS
MILWAUKEE      CLOUDY    39  36  89 NW6       29.73S WCI  35
6HR MIN TEMP:  38; 6HR MAX TEMP:  39;

WAUKESHA       CLOUDY    34  34 100 NW6       29.75R FOG     WCI  29
MILWAUKEE/TIMM CLOUDY    36  34  93 NW6       29.75R FOG     WCI  31
RACINE         CLOUDY    38  35  89 NW5       29.75R WCI  34
6HR MIN TEMP:  36; 6HR MAX TEMP:  38;

KENOSHA        CLOUDY    37  35  92 NW7       29.74R FOG     WCI  32
6HR MIN TEMP:  37; 6HR MAX TEMP:  38;

FOND DU LAC    CLOUDY    36  33  89 NW7       29.74R FOG     WCI  30
6HR MIN TEMP:  35; 6HR MAX TEMP:  37; 6HR PCP: TRACE;

SHEBOYGAN      FOG       36  35  96 NW6       29.73R VSB 1/2 WCI  31
6HR MIN TEMP:  35; 6HR MAX TEMP:  37;

WEST BEND      FOG       34  34 100 NW7       29.73R VSB 1/2 WCI  28
JUNEAU         FOG       34  34 100 NW6       29.75R VSB 1/4 WCI  29
$$

LSZ147-162-231300-
LAKE SUPERIOR

STATION/POSITION TIME  TEMP    WIND        PRES    WAVE
                       AIR SEA DIR/SP/G            HT/PER
                 (UTC) (F)     (DEG/KT/KT) (MB)    (FT/S)
DEVILS ISLAND    1100   33     240/  7/  8 1008.4F
PORT WING        1140   36     240/  5/  9 1008.1S
SAXON HARBOR     1140   35     180/  2/  5 1007.5F
$$

LMZ867-665-643>646-231300-
LAKE MICHIGAN

STATION/POSITION TIME  TEMP    WIND        PRES    WAVE
                       AIR SEA DIR/SP/G            HT/PER
                 (UTC) (F)     (DEG/KT/KT) (MB)    (FT/S)
NORTHPORT PIER   1140   34     310/  6/  8 1006.8R
SISTER BAY       1005   33        CALM       N/A
KEWAUNEE LAKESHO 1130   36     330/  2/  5 1006.3R
SHEBOYGAN LAKESH 1100   37     310/  7/  8 1006.6R
PORT WASHINGTON  1140   38     300/  5/  6 1008.1R
KENOSHA   LAKESH 1100   38     330/  9/ 10 1006.8
$$

TC  - TEMPERATURE IN CELSIUS
VSB - VISIBILITY IN STATUTE MILES
WCI - WIND CHILL INDEX
HX  - HEAT INDEX





USA.gov is the U.S. government's official web portal to all federal, state and local government web resources and services.